Simultaneous Nadir Overpasses (SNOs) Predictions

Prediction of SNOs between NOAA-20 and METOP-B Satellite Orbit:

Table of predicted SNOs for the next 14.0 days since TLE Epoch: 2/22/2019
Index Date (NOAA-20) Time (NOAA-20) Lat,Lon (NOAA-20) SZA (NOAA-20 ) Date (METOP-B) Time (METOP-B) Lat,Lon (METOP-B) SZA (METOP-B ) Distance(km) Time Diff (sec)
1 02/27/2019 14:23:17 73.48, -45.58 82.11 02/27/2019 14:24:24 73.40, -43.05 81.87 80.72 67
2 02/27/2019 15:13:59 -73.38, 121.96 98.01 02/27/2019 15:15:07 -73.35, 124.15 98.19 69.85 68
3 02/27/2019 16:04:41 73.19, -70.29 81.76 02/27/2019 16:05:51 73.13, -68.99 81.61 42.24 70
4 02/27/2019 16:55:23 -73.09, 97.24 98.37 02/27/2019 16:56:35 -73.03, 98.11 98.50 28.81 72
5 02/27/2019 17:46:05 72.89, -95.02 81.40 02/27/2019 17:47:18 72.86, -94.91 81.35 4.50 73
6 02/27/2019 18:36:48 -72.84, 72.40 98.67 02/27/2019 18:38:00 -72.86, 72.41 98.67 1.96 72
7 02/27/2019 19:27:34 72.84,-120.29 81.32 02/27/2019 19:28:40 72.84,-120.29 81.30 0.22 66
8 02/27/2019 20:18:18 -72.84, 47.02 98.70 02/27/2019 20:19:22 -72.84, 47.03 98.72 0.55 64
9 02/27/2019 21:09:04 72.84,-145.67 81.30 02/27/2019 21:10:02 72.82,-145.67 81.26 2.25 58
10 02/27/2019 21:59:48 -72.85, 21.64 98.72 02/27/2019 22:00:44 -72.82, 21.65 98.76 2.96 56
11 02/27/2019 22:50:33 72.80,-170.95 81.22 02/27/2019 22:51:24 72.80,-171.05 81.22 3.56 51
12 02/27/2019 23:41:17 -72.80, -3.64 98.80 02/27/2019 23:42:06 -72.80, -3.73 98.80 3.13 49
13 02/28/2019 00:32:03 72.80, 163.67 81.19 02/28/2019 00:32:46 72.78, 163.57 81.17 3.71 43
14 02/28/2019 01:22:47 -72.80, -29.02 98.82 02/28/2019 01:23:27 -72.83, -29.00 98.80 3.42 40
15 02/28/2019 02:13:33 72.80, 138.29 81.17 02/28/2019 02:14:07 72.82, 138.30 81.18 1.65 34
16 02/28/2019 03:04:17 -72.80, -54.40 98.85 02/28/2019 03:04:49 -72.81, -54.38 98.85 1.05 32
17 02/28/2019 03:55:03 72.81, 112.91 81.15 02/28/2019 03:55:29 72.80, 112.92 81.13 0.86 26
18 02/28/2019 04:45:47 -72.81, -79.78 98.87 02/28/2019 04:46:11 -72.79, -79.76 98.89 1.60 24
19 02/28/2019 05:36:33 72.81, 87.53 81.12 02/28/2019 05:36:51 72.78, 87.54 81.09 3.30 18
20 02/28/2019 06:27:16 -72.76,-105.05 98.95 02/28/2019 06:27:33 -72.78,-105.14 98.93 3.32 17
21 02/28/2019 07:18:02 72.76, 62.25 81.04 02/28/2019 07:18:13 72.76, 62.16 81.05 3.14 11
22 02/28/2019 08:08:46 -72.76,-130.44 98.97 02/28/2019 08:08:55 -72.76,-130.52 98.98 2.93 9
23 02/28/2019 08:59:32 72.76, 36.87 81.02 02/28/2019 08:59:34 72.79, 36.89 81.05 3.08 2
24 02/28/2019 09:50:16 -72.77,-155.82 98.99 02/28/2019 09:50:16 -72.79,-155.80 98.97 2.48 0
25 02/28/2019 10:41:02 72.77, 11.49 81.00 02/28/2019 10:40:56 72.77, 11.51 81.00 0.75 6
26 02/28/2019 11:31:46 -72.77, 178.80 99.02 02/28/2019 11:31:38 -72.77, 178.83 99.02 0.78 8
27 02/28/2019 12:22:32 72.77, -13.89 80.97 02/28/2019 12:22:18 72.75, -13.87 80.96 1.95 14
28 02/28/2019 13:13:16 -72.77, 153.42 99.04 02/28/2019 13:13:00 -72.75, 153.45 99.06 2.66 16
29 02/28/2019 14:04:01 72.72, -39.16 80.90 02/28/2019 14:03:40 72.73, -39.25 80.92 3.16 21
30 02/28/2019 14:54:45 -72.73, 128.15 99.12 02/28/2019 14:54:22 -72.73, 128.07 99.10 2.64 23
31 02/28/2019 15:45:31 72.73, -64.55 80.87 02/28/2019 15:45:02 72.72, -64.63 80.87 3.05 29
32 02/28/2019 16:36:15 -72.73, 102.76 99.14 02/28/2019 16:35:44 -72.71, 102.69 99.15 3.08 31
33 02/28/2019 17:27:01 72.73, -89.93 80.85 02/28/2019 17:26:23 72.75, -89.91 80.87 2.13 38
34 02/28/2019 18:17:45 -72.73, 77.38 99.17 02/28/2019 18:17:05 -72.74, 77.41 99.15 1.71 40
35 02/28/2019 19:08:31 72.73,-115.31 80.83 02/28/2019 19:07:45 72.73,-115.28 80.83 0.92 46
36 02/28/2019 19:59:15 -72.74, 52.00 99.19 02/28/2019 19:58:27 -72.73, 52.04 99.19 1.56 48
37 02/28/2019 20:50:01 72.74,-140.69 80.80 02/28/2019 20:49:07 72.71,-140.66 80.79 3.06 54
38 02/28/2019 21:40:44 -72.69, 26.73 99.27 02/28/2019 21:39:49 -72.71, 26.66 99.23 3.08 55
39 02/28/2019 22:31:30 72.69,-165.97 80.72 02/28/2019 22:30:29 72.69,-166.04 80.75 2.55 61
40 02/28/2019 23:22:14 -72.69, 1.34 99.29 02/28/2019 23:21:11 -72.69, 1.28 99.28 2.25 63
41 03/01/2019 00:13:00 72.69, 168.65 80.70 03/01/2019 00:11:51 72.67, 168.58 80.70 3.33 69
42 03/01/2019 01:03:44 -72.69, -24.04 99.32 03/01/2019 01:02:32 -72.72, -24.00 99.28 3.08 72
43 03/01/2019 01:54:28 72.59, 143.48 80.56 03/01/2019 01:53:14 72.60, 143.10 80.61 12.84 74
44 03/01/2019 02:45:11 -72.55, -49.11 99.51 03/01/2019 02:43:57 -72.55, -49.69 99.45 19.35 74
45 03/01/2019 03:35:52 72.29, 118.71 80.21 03/01/2019 03:34:42 72.28, 117.11 80.31 54.41 70
46 03/01/2019 04:26:35 -72.24, -73.88 99.86 03/01/2019 04:25:25 -72.22, -75.67 99.76 60.80 70
47 03/01/2019 05:17:16 71.99, 93.93 79.85 03/01/2019 05:16:10 71.95, 91.14 80.00 96.07 66




NCC Satellite Simultaneous Nadir Overpasses (SNOs) Prediction Service
